TimeEST,TemperatureF,Dew PointF,Humidity,Sea Level PressureIn,VisibilityMPH,Wind Direction,Wind SpeedMPH,Gust SpeedMPH,PrecipitationIn,Events,Conditions,WindDirDegrees,DateUTC
12:15 AM,41.0,39.2,93,30.45,9.0,Calm,Calm,-,N/A,,Clear,0,2012-11-12 05:15:00
12:35 AM,41.0,39.2,93,30.45,9.0,Calm,Calm,-,N/A,,Clear,0,2012-11-12 05:35:00
12:55 AM,39.2,37.4,93,30.45,7.0,Calm,Calm,-,N/A,,Clear,0,2012-11-12 05:55:00
1:15 AM,39.2,37.4,93,30.45,7.0,Calm,Calm,-,N/A,,Clear,0,2012-11-12 06:15:00
1:55 AM,39.2,37.4,93,30.45,6.0,Calm,Calm,-,N/A,,Clear,0,2012-11-12 06:55:00
2:15 AM,39.2,37.4,93,30.44,6.0,Calm,Calm,-,N/A,,Clear,0,2012-11-12 07:15:00
2:55 AM,37.4,37.4,100,30.43,8.0,Calm,Calm,-,N/A,,Clear,0,2012-11-12 07:55:00
3:15 AM,37.4,37.4,100,30.43,4.0,Calm,Calm,-,N/A,,Clear,0,2012-11-12 08:15:00
3:35 AM,37.4,35.6,93,30.43,5.0,Calm,Calm,-,N/A,,Clear,0,2012-11-12 08:35:00
4:15 AM,37.4,35.6,93,30.42,8.0,Calm,Calm,-,N/A,,Clear,0,2012-11-12 09:15:00
4:35 AM,37.4,35.6,93,30.43,6.0,Calm,Calm,-,N/A,,Clear,0,2012-11-12 09:35:00
4:55 AM,35.6,33.8,93,30.43,7.0,Calm,Calm,-,N/A,,Clear,0,2012-11-12 09:55:00
5:15 AM,35.6,33.8,93,30.43,6.0,Calm,Calm,-,N/A,,Clear,0,2012-11-12 10:15:00
5:35 AM,35.6,33.8,93,30.43,8.0,Calm,Calm,-,N/A,,Clear,0,2012-11-12 10:35:00
5:55 AM,35.6,33.8,93,30.42,7.0,Calm,Calm,-,N/A,,Clear,0,2012-11-12 10:55:00
6:15 AM,35.6,32.0,87,30.42,10.0,Calm,Calm,-,N/A,,Clear,0,2012-11-12 11:15:00
6:35 AM,35.6,32.0,87,30.42,9.0,Calm,Calm,-,N/A,,Clear,0,2012-11-12 11:35:00
6:55 AM,35.6,32.0,87,30.43,8.0,Calm,Calm,-,N/A,,Clear,0,2012-11-12 11:55:00
7:35 AM,35.6,33.8,93,30.43,8.0,Calm,Calm,-,N/A,,Clear,0,2012-11-12 12:35:00
7:55 AM,37.4,35.6,93,30.43,7.0,Calm,Calm,-,N/A,,Clear,0,2012-11-12 12:55:00
8:15 AM,39.2,37.4,93,30.43,5.0,Calm,Calm,-,N/A,,Scattered Clouds,0,2012-11-12 13:15:00
8:35 AM,44.6,42.8,93,30.43,3.0,Calm,Calm,-,N/A,,Overcast,0,2012-11-12 13:35:00
8:55 AM,46.4,44.6,93,30.43,2.5,Calm,Calm,-,N/A,,Overcast,0,2012-11-12 13:55:00
9:15 AM,48.2,46.4,93,30.42,2.0,Calm,Calm,-,N/A,,Overcast,0,2012-11-12 14:15:00
9:35 AM,50.0,48.2,94,30.42,2.5,Calm,Calm,-,N/A,,Overcast,0,2012-11-12 14:35:00
9:55 AM,53.6,48.2,82,30.41,4.0,Calm,Calm,-,N/A,,Scattered Clouds,0,2012-11-12 14:55:00
10:15 AM,57.2,51.8,82,30.40,6.0,South,6.9,-,N/A,,Mostly Cloudy,170,2012-11-12 15:15:00
10:35 AM,57.2,53.6,88,30.40,7.0,South,6.9,-,N/A,,Mostly Cloudy,190,2012-11-12 15:35:00
10:55 AM,60.8,53.6,77,30.39,9.0,South,6.9,-,N/A,,Scattered Clouds,180,2012-11-12 15:55:00
11:15 AM,60.8,53.6,77,30.38,10.0,South,6.9,-,N/A,,Partly Cloudy,180,2012-11-12 16:15:00
11:35 AM,62.6,53.6,72,30.37,9.0,South,9.2,-,N/A,,Clear,180,2012-11-12 16:35:00
11:55 AM,62.6,55.4,77,30.37,10.0,South,8.1,-,N/A,,Partly Cloudy,190,2012-11-12 16:55:00
12:15 PM,62.6,53.6,72,30.36,10.0,South,9.2,-,N/A,,Clear,190,2012-11-12 17:15:00
12:35 PM,64.4,53.6,68,30.35,10.0,South,8.1,-,N/A,,Clear,190,2012-11-12 17:35:00
12:55 PM,64.4,53.6,68,30.34,9.0,SSW,6.9,-,N/A,,Partly Cloudy,200,2012-11-12 17:55:00
1:35 PM,66.2,53.6,64,30.32,10.0,South,10.4,-,N/A,,Partly Cloudy,170,2012-11-12 18:35:00
1:55 PM,66.2,53.6,64,30.31,10.0,SSE,8.1,-,N/A,,Partly Cloudy,160,2012-11-12 18:55:00
2:15 PM,64.4,53.6,68,30.30,10.0,South,8.1,16.1,N/A,,Clear,190,2012-11-12 19:15:00
2:35 PM,64.4,53.6,68,30.29,10.0,South,8.1,-,N/A,,Clear,180,2012-11-12 19:35:00
2:55 PM,66.2,53.6,64,30.28,10.0,South,4.6,-,N/A,,Clear,180,2012-11-12 19:55:00
3:15 PM,66.2,53.6,64,30.27,10.0,South,10.4,-,N/A,,Clear,170,2012-11-12 20:15:00
3:35 PM,66.2,53.6,64,30.27,10.0,South,6.9,16.1,N/A,,Partly Cloudy,180,2012-11-12 20:35:00
3:55 PM,64.4,53.6,68,30.26,10.0,SSE,5.8,16.1,N/A,,Clear,160,2012-11-12 20:55:00
4:15 PM,64.4,53.6,68,30.25,10.0,SSE,8.1,-,N/A,,Clear,150,2012-11-12 21:15:00
4:35 PM,64.4,53.6,68,30.24,10.0,SSE,9.2,-,N/A,,Clear,150,2012-11-12 21:35:00
4:55 PM,64.4,53.6,68,30.23,10.0,SSE,8.1,-,N/A,,Clear,150,2012-11-12 21:55:00
5:35 PM,62.6,53.6,72,30.23,10.0,SSE,6.9,-,N/A,,Clear,160,2012-11-12 22:35:00
5:55 PM,62.6,53.6,72,30.23,10.0,SSE,6.9,-,N/A,,Clear,160,2012-11-12 22:55:00
6:15 PM,62.6,55.4,77,30.23,10.0,SSE,6.9,-,N/A,,Clear,160,2012-11-12 23:15:00
6:35 PM,62.6,55.4,77,30.23,10.0,South,6.9,-,N/A,,Clear,170,2012-11-12 23:35:00
6:55 PM,62.6,55.4,77,30.24,10.0,South,6.9,-,N/A,,Scattered Clouds,190,2012-11-12 23:55:00
7:15 PM,62.6,55.4,77,30.24,10.0,South,5.8,-,N/A,,Mostly Cloudy,190,2012-11-13 00:15:00
7:55 PM,60.8,55.4,82,30.22,10.0,SSE,10.4,-,N/A,,Partly Cloudy,160,2012-11-13 00:55:00
8:15 PM,60.8,55.4,82,30.21,10.0,South,10.4,16.1,N/A,,Clear,170,2012-11-13 01:15:00
8:35 PM,60.8,55.4,82,30.20,10.0,South,10.4,-,N/A,,Clear,170,2012-11-13 01:35:00
8:55 PM,59.0,57.2,94,30.20,10.0,South,6.9,-,N/A,,Scattered Clouds,180,2012-11-13 01:55:00
9:15 PM,59.0,57.2,94,30.20,10.0,South,8.1,-,N/A,,Mostly Cloudy,180,2012-11-13 02:15:00
9:35 PM,59.0,57.2,94,30.20,10.0,South,8.1,-,N/A,,Scattered Clouds,170,2012-11-13 02:35:00
9:55 PM,59.0,57.2,94,30.18,10.0,South,5.8,-,N/A,,Scattered Clouds,170,2012-11-13 02:55:00
10:15 PM,59.0,57.2,94,30.18,10.0,South,8.1,-,N/A,,Mostly Cloudy,180,2012-11-13 03:15:00
10:35 PM,59.0,57.2,94,30.17,10.0,South,4.6,-,N/A,,Mostly Cloudy,170,2012-11-13 03:35:00
10:55 PM,59.0,57.2,94,30.17,10.0,South,6.9,-,N/A,,Overcast,170,2012-11-13 03:55:00
11:15 PM,59.0,57.2,94,30.17,10.0,South,8.1,-,N/A,,Overcast,180,2012-11-13 04:15:00
11:35 PM,60.8,57.2,88,30.16,10.0,South,8.1,-,N/A,,Overcast,180,2012-11-13 04:35:00
11:55 PM,60.8,57.2,88,30.15,10.0,South,6.9,-,N/A,,Overcast,180,2012-11-13 04:55:00